Powrót do katalogu

PEGASUS DEB

AktywnyPO
NORAD 24051·DEBRIS·🇺🇸 United States

Wystrzelony May 19, 1994 z Vandenberg Space Force Base

Loading…

Następne Przeloty (najbliższe 24 godziny)

TLE

ŚwieżeSource: Space-Track

Epoka: Sep 14, 2026, 10:35 UTC

1 24051U 94029CY  26257.44149630  .00004014  00000-0  77466-3 0  9991
2 24051  81.2888 307.2776 0330952 246.1297 174.7778 14.33813184529489

Śledź PEGASUS DEB w czasie rzeczywistym z AllMySat

Download on the App Store